Regional Weather Roundup
Issued by NWS Charleston, SC

Current Version | Previous Version | Graphics & Text | Print | Product List | Glossary On
Versions: 1 2 3 4 5 6 7 8 9 10 11 12 13 14 15 16 17 18 19 20 21 22 23 24 25 26 27 28 29 30 31 32 33 34 35 36 37 38 39 40 41 42 43 44 45 46 47 48 49 50
000 ASUS42 KCHS 211425 RWRCHS REGIONAL WEATHER ROUNDUP NATIONAL WEATHER SERVICE CHARLESTON SC 1000 AM EDT THU SEP 21 2017 NOTE: "FAIR" INDICATES FEW OR NO CLOUDS BELOW 12,000 FEET WITH NO SIGNIFICANT WEATHER AND/OR OBSTRUCTIONS TO VISIBILITY. NOT ALL STATIONS ARE QUALITY CONTROLLED. USE DATA WITH CAUTION... ESPECIALLY DEWPOINT OBSERVATIONS. SCZ027-030-031-034>040-042>050-211500- ...SOUTHEAST SOUTH CAROLINA... CITY SKY/WX TMP DP RH WIND PRES REMARKS N CHARLESTON MOSUNNY 82 72 71 NW5 30.05S WATERFRONT PRK N/A 81 74 79 VRB2 29.89R JOHNS ISLAND FAIR 84 73 70 CALM 30.05S HX 91 PINOPOLIS N/A 79 73 83 CALM 29.99R MONCKS CORNER FAIR 79 72 78 CALM 30.05S SUMMERVILLE FAIR 79 72 78 CALM 30.06S BEAUFORT MCAS MOSUNNY 82 74 76 W5 30.06R BEAUFORT ARPT FAIR 81 72 74 NW3 30.05S HILTON HEAD IS SUNNY 82 73 74 SW6 30.07R WALTERBORO NOT AVBL ALLENDALE NOT AVBL ...SOUTHERN MIDLANDS AND PEE DEE... CITY SKY/WX TMP DP RH WIND PRES REMARKS GEORGETOWN FAIR 79 75 89 NW5 30.06S KINGSTREE NOT AVBL ORANGEBURG SUNNY 80 70 71 NW3 30.05S BARNWELL FAIR 84 73 70 CALM 30.06R HX 91 AIKEN FAIR 79 68 69 N5 30.10S MANNING FAIR 79 72 78 N5 30.05S COLUMBIA SUNNY 82 69 64 W3 30.05F SUMTER SUNNY 81 69 66 N8 30.03R FLORENCE SUNNY 81 72 74 N6 30.05S MYRTLE BEACH SUNNY 80 72 76 NW7 30.06R N MYRTLE BEACH SUNNY 81 72 74 NW6 30.04R $$ GAZ063-065-086>088-099>101-113>116-118-119-134>141-150-211500- ...SOUTHEAST GEORGIA... CITY SKY/WX TMP DP RH WIND PRES REMARKS SAVANNAH ARPT MOSUNNY 81 72 74 W3 30.06S HUNTER AAF SUNNY 81 73 75 W3 30.04R FORT STEWART SUNNY 79 71 76 S3 30.05R STATESBORO SUNNY 80 70 70 CALM 30.06S SYLVANIA SUNNY 80 74 82 CALM 30.07S CLAXTON FAIR 80 74 81 CALM 30.07R ...CSRA...CENTRAL AND FAR SOUTHEAST GEORGIA... CITY SKY/WX TMP DP RH WIND PRES REMARKS THOMSON SUNNY 79 70 74 CALM 30.12S AUGUSTA-BUSH SUNNY N/A N/A N/A MISG 30.05S FOG AUGUSTA-DANIEL SUNNY 84 70 62 N6 30.07R SWAINSBORO FAIR 79 72 78 CALM 30.08R VIDALIA SUNNY 81 72 74 N3 30.07S EASTMAN FAIR 81 64 56 CALM 30.09S HAZLEHURST FAIR 80 66 62 NE3 30.06S ALMA MOSUNNY 79 71 76 E3 30.06R WAYCROSS CLOUDY 76 73 91 CALM 30.06R JESUP NOT AVBL BAXLEY FAIR 77 73 88 CALM 30.06S BRUNSWICK CLOUDY 79 72 78 CALM 30.07R SAINT SIMONS CLOUDY 81 74 79 NW3 30.06R $$ SCZ027-028-034-036>038-045-046-048>050-GAZ119-141-211500- ...LAKE AND SUPPLEMENTAL COASTAL OBSERVATIONS... STATION/POSITION TIME TEMP WIND PRES WAVE SWELL AIR SEA DIR/SP/G HT/PER HT/PER/DIR (UTC) (F) (DEG/KT/KT) (MB) (FT/S) (FT/S/D) WINYAH BAY NOT AVBL LAKE MURRAY 1320 78 CALM / 1 1016.9 ACE BASIN NERRS 1245 76 CALM 1018.0 FORT PULASKI 1342 80 80 310/ 2/ 3 1018.3R SAPELO ISLAND 1300 77 CALM 1018.0 $$ ANZ835-935-AMZ111-154-330-350-352-354-370-450-454-472-211500- ...C-MAN AND BUOY OBSERVATIONS... STATION/POSITION TIME TEMP WIND PRES WAVE SWELL AIR SEA DIR/SP/G HT/PER HT/PER/DIR (UTC) (F) (DEG/KT/KT) (MB) (FT/S) (FT/S/D) BUOY 41004 1350 79 81 300/ 4/ 6 1017.3R 3/11 3/100/11 BUOY 41008 1350 80 80 110/ 2/ 2 1017.4R 2/12 2/110/12 FOLLY BEACH CMAN 1400 81 280/ 1/ 3 1018.4R CAPERS NEARSHORE 1308 80 80 300/ 4/ 6 1017.3R FRIPP NEARSHORE 1308 79 270/ 2/ 4 1026.6R STATION/POSITION TIME TEMP WIND PRES WAVE SWELL AIR SEA DIR/SP/G HT/PER HT/PER/DIR (UTC) (F) (DEG/KT/KT) (MB) (FT/S) (FT/S/D) 5E ST. MARYS GA 1400 83 N/A 2/12 2/110/12 FRYING PAN BUOY 1350 80 82 300/ 10/ 12 1017.0R 3/11 2/110/11 BUOY 41025 1350 76 75 320/ 4/ 4 1016.7R 4/10 3/ 60/10 CAPE LOOKOUT NC 1400 79 280/ 5/ 5 1016.7R BUOY 41002 1350 78 80 20/ 2/ 4 1017.3R 6/ 9 5/ 30/ 9 BUOY 41010 1350 85 40/ 10/ 14 1016.8R 4/11 5/11 ST AUGUSTINE FL 1400 79 82 350/ 7/ 7 1017.8R $$

USA.gov is the U.S. government's official web portal to all federal, state and local government web resources and services.